FW3933 Weather Reports


Display with metric or nautical units.
time (UTC)temp
F
wind
direction
speed
MPH
gust
MPH
rain 1hr
in
rain 24hr
in
rain mn
in
humidity
%
barometer
mb
20260507004007 73 269 2.0 11.0 0.00 0.00 0.00 56 1022.2
20260507003507 74 305 4.0 11.0 0.00 0.00 0.00 56 1022.3
20260507003006 74 307 1.0 6.0 0.00 0.00 0.00 57 1022.3
20260507002505 74 310 0.0 7.0 0.00 0.00 0.00 57 1022.4
20260507002005 74 305 0.0 9.0 0.00 0.00 0.00 58 1022.4
20260507001505 73 293 1.0 9.0 0.00 0.00 0.00 57 1022.4
20260507000508 74 302 1.0 7.0 0.00 0.00 0.00 58 1022.4
20260507000002 73 328 0.0 6.0 0.00 0.00 0.00 58 1022.5
20260506235502 73 349 0.0 7.0 0.00 0.00 0.00 59 1022.5
20260506235100 73 314 2.0 8.0 0.00 0.00 0.00 58 1022.6
20260506234626 72 313 2.0 9.0 0.00 0.00 0.00 60 1022.6
20260506234100 72 296 4.0 9.0 0.00 0.00 0.00 58 1022.7
20260506233600 72 296 1.0 8.0 0.00 0.00 0.00 61 1022.7
20260506233101 72 311 1.0 7.0 0.00 0.00 0.00 60 1022.7
20260506232559 72 307 1.0 8.0 0.00 0.00 0.00 60 1022.8
20260506232058 72 311 2.0 8.0 0.00 0.00 0.00 59 1022.8
20260506231557 72 312 1.0 8.0 0.00 0.00 0.00 60 1022.9
20260506231158 72 309 3.0 10.0 0.00 0.00 0.00 58 1023.1
20260506230600 72 321 3.0 10.0 0.00 0.00 0.00 57 1023.1
20260506230058 72 340 0.0 6.0 0.00 0.00 0.00 60 1023.2
20260506225557 71 292 0.0 6.0 0.00 0.00 0.00 60 1023.2
20260506225054 71 288 1.0 8.0 0.00 0.00 0.00 61 1023.3
20260506224552 70 286 0.0 8.0 0.00 0.00 0.00 61 1023.4
20260506224051 70 298 2.0 9.0 0.00 0.00 0.00 60 1023.5
20260506223553 71 309 2.0 9.0 0.00 0.00 0.00 60 1023.6
20260506223057 71 278 2.0 8.0 0.00 0.00 0.00 59 1023.7
20260506222550 71 288 0.0 8.0 0.00 0.00 0.00 58 1023.8
20260506222050 72 294 0.0 6.0 0.00 0.00 0.00 59 1023.8
20260506221551 71 241 0.0 7.0 0.00 0.00 0.00 59 1023.9
20260506221149 72 317 0.0 4.0 0.00 0.00 0.00 56 1024.0
20260506220549 72 282 0.0 3.0 0.00 0.00 0.00 56 1024.0
20260506220048 71 304 0.0 4.0 0.00 0.00 0.00 59 1024.1
20260506215549 71 317 0.0 4.0 0.00 0.00 0.00 60 1024.2
20260506215051 71 273 0.0 3.0 0.00 0.00 0.00 59 1024.3
20260506214548 71 270 0.0 3.0 0.00 0.00 0.00 60 1024.4
20260506214047 71 252 0.0 3.0 0.00 0.00 0.00 58 1024.4
20260506213548 71 273 0.0 3.0 0.00 0.00 0.00 58 1024.5
20260506213045 70 285 0.0 5.0 0.00 0.00 0.00 60 1024.6
20260506212545 70 264 0.0 5.0 0.00 0.00 0.00 59 1024.6
20260506212044 69 243 0.0 7.0 0.00 0.00 0.00 61 1024.7
20260506211544 70 290 0.0 7.0 0.00 0.00 0.00 60 1024.8
20260506211144 70 289 0.0 2.0 0.00 0.00 0.00 59 1024.8
20260506210544 70 205 0.0 2.0 0.00 0.00 0.00 59 1024.8
20260506210041 69 219 0.0 0.0 0.00 0.00 0.00 59 1024.8
20260506205540 69 207 0.0 2.0 0.00 0.00 0.00 63 1024.9
20260506205040 68 207 0.0 4.0 0.00 0.00 0.00 62 1025.0
20260506204551 68 299 0.0 5.0 0.00 0.00 0.00 62 1025.1
20260506204043 68 297 1.0 5.0 0.00 0.00 0.00 62 1025.3
20260506203540 68 284 0.0 0.0 0.00 0.00 0.00 61 1025.3
20260506203038 67 301 0.0 2.0 0.00 0.00 0.00 64 1025.2
20260506202537 67 277 0.0 6.0 0.00 0.00 0.00 66 1025.3
20260506202037 67 294 0.0 6.0 0.00 0.00 0.00 64 1025.4
20260506201539 67 317 0.0 4.0 0.00 0.00 0.00 65 1025.5
20260506201136 66 315 0.0 4.0 0.00 0.00 0.00 66 1025.6
20260506200537 66 303 0.0 4.0 0.00 0.00 0.00 68 1025.6
20260506200039 66 228 0.0 4.0 0.00 0.00 0.00 65 1025.7
20260506195537 66 277 0.0 4.0 0.00 0.00 0.00 67 1025.7
20260506195039 66 297 0.0 3.0 0.00 0.00 0.00 65 1025.7
20260506194544 66 283 0.0 5.0 0.00 0.00 0.00 66 1025.8
20260506194037 66 172 0.0 5.0 0.00 0.00 0.00 65 1025.9
20260506193539 65 226 0.0 5.0 0.00 0.00 0.00 68 1026.0
20260506193038 65 217 1.0 5.0 0.00 0.00 0.00 66 1026.1
20260506192536 65 191 0.0 4.0 0.00 0.00 0.00 68 1026.1
20260506192038 65 207 0.0 4.0 0.00 0.00 0.00 67 1026.1
20260506191536 65 227 0.0 4.0 0.00 0.00 0.00 67 1026.1
20260506191138 66 197 0.0 4.0 0.00 0.00 0.00 65 1026.2
20260506190536 66 201 0.0 2.0 0.00 0.00 0.00 65 1026.2
20260506190038 66 232 0.0 1.0 0.00 0.00 0.00 64 1026.2
20260506185535 66 309 0.0 1.0 0.00 0.00 0.00 64 1026.2
20260506185036 65 299 0.0 0.0 0.00 0.00 0.00 67 1026.2
20260506184533 64 296 0.0 3.0 0.00 0.00 0.00 69 1026.2
20260506184033 64 315 0.0 5.0 0.00 0.00 0.00 68 1026.2
20260506183532 65 353 0.0 4.0 0.00 0.00 0.00 69 1026.3
20260506183032 64 190 0.0 4.0 0.00 0.00 0.00 68 1026.3
20260506182530 63 191 0.0 4.0 0.00 0.00 0.00 72 1026.2
20260506182029 63 277 0.0 0.0 0.00 0.00 0.00 71 1026.3
20260506181529 63 231 0.0 0.0 0.00 0.00 0.00 72 1026.2
20260506181129 62 303 0.0 0.0 0.00 0.00 0.00 78 1026.3
20260506180530 61 303 0.0 0.0 0.00 0.00 0.00 78 1026.2
20260506180027 60 303 0.0 0.0 0.00 0.00 0.00 75 1026.2
20260506175524 60 303 0.0 0.0 0.00 0.00 0.00 77 1026.3
20260506175028 60 302 0.0 0.0 0.00 0.00 0.00 78 1026.4
20260506174523 59 302 0.0 0.0 0.00 0.00 0.00 79 1026.3
20260506174022 59 302 0.0 0.0 0.00 0.00 0.00 79 1026.2
20260506173521 59 303 0.0 3.0 0.00 0.00 0.00 82 1026.3
20260506173021 59 300 0.0 3.0 0.00 0.00 0.00 81 1026.4
20260506172519 58 298 0.0 0.0 0.00 0.00 0.00 82 1026.3
20260506172019 58 301 0.0 0.0 0.00 0.00 0.00 81 1026.3
20260506171532 58 301 0.0 0.0 0.00 0.00 0.00 83 1026.4
20260506171118 58 301 0.0 0.0 0.00 0.00 0.00 83 1026.3
20260506170518 58 301 0.0 5.0 0.00 0.00 0.00 83 1026.3
20260506170018 58 302 0.0 5.0 0.00 0.00 0.00 82 1026.2
20260506165519 58 254 0.0 5.0 0.00 0.00 0.00 83 1026.2
20260506165019 58 201 0.0 5.0 0.00 0.00 0.00 83 1026.2
20260506164519 57 317 0.0 5.0 0.00 0.00 0.00 84 1026.2
20260506164017 57 253 0.0 3.0 0.00 0.00 0.00 84 1026.2
20260506163518 57 252 0.0 5.0 0.00 0.00 0.00 84 1026.3
20260506163015 57 266 0.0 5.0 0.00 0.00 0.00 84 1026.3
20260506162514 57 248 0.0 4.0 0.00 0.00 0.00 84 1026.2
20260506162015 57 237 0.0 4.0 0.00 0.00 0.00 84 1026.2
20260506161514 57 303 0.0 6.0 0.00 0.00 0.00 85 1026.2
20260506161114 57 263 0.0 4.0 0.00 0.00 0.00 85 1026.1
20260506160516 57 290 0.0 4.0 0.00 0.00 0.00 85 1026.1
20260506160016 56 289 0.0 7.0 0.00 0.00 0.00 85 1026.1
20260506155513 56 240 0.0 7.0 0.00 0.00 0.00 85 1026.1
20260506155012 56 253 0.0 3.0 0.00 0.00 0.00 86 1026.1
20260506154512 56 287 0.0 3.0 0.00 0.00 0.00 86 1026.1
20260506154011 56 276 0.0 2.0 0.00 0.00 0.00 87 1026.1
20260506153512 56 275 0.0 4.0 0.00 0.00 0.00 86 1026.0
20260506153011 56 301 0.0 5.0 0.00 0.00 0.00 87 1026.1
20260506152510 56 299 0.0 5.0 0.00 0.00 0.00 87 1026.0
20260506152010 56 261 0.0 2.0 0.00 0.00 0.00 87 1026.1
20260506151509 55 261 0.0 3.0 0.00 0.00 0.00 87 1026.0
20260506151108 55 261 0.0 0.0 0.00 0.00 0.00 88 1026.0
20260506150511 55 261 0.0 0.0 0.00 0.00 0.00 88 1026.0
20260506150019 55 261 0.0 0.0 0.00 0.00 0.00 88 1026.0
20260506145507 55 261 0.0 3.0 0.00 0.00 0.00 88 1026.0
20260506145008 55 266 0.0 3.0 0.00 0.00 0.00 88 1026.0
20260506144506 55 265 0.0 3.0 0.00 0.00 0.00 89 1026.0
20260506144009 55 265 0.0 3.0 0.00 0.00 0.00 89 1026.0
20260506143506 54 269 0.0 0.0 0.00 0.00 0.00 89 1025.9
20260506143017 54 269 0.0 0.0 0.00 0.00 0.00 89 1025.9
20260506142502 54 269 0.0 0.0 0.00 0.00 0.00 88 1025.8
20260506142003 54 273 0.0 4.0 0.00 0.00 0.00 89 1025.7
20260506141502 54 205 0.0 0.0 0.00 0.00 0.00 89 1025.7
20260506141103 54 182 0.0 4.0 0.00 0.00 0.00 89 1025.6
20260506140502 54 182 0.0 4.0 0.00 0.00 0.00 89 1025.6
20260506140002 54 269 0.0 4.0 0.00 0.00 0.00 89 1025.7
20260506135501 54 269 0.0 4.0 0.00 0.00 0.00 89 1025.5
20260506135100 54 218 0.0 4.0 0.00 0.00 0.00 89 1025.5
20260506134601 54 277 0.0 4.0 0.00 0.00 0.00 89 1025.5
20260506134059 54 253 0.0 0.0 0.00 0.00 0.00 89 1025.5
20260506133559 54 253 0.0 0.0 0.00 0.00 0.00 88 1025.5
20260506133100 54 253 0.0 0.0 0.00 0.00 0.00 88 1025.4
20260506132557 54 254 0.0 0.0 0.00 0.00 0.00 88 1025.3
20260506132057 54 254 0.0 0.0 0.00 0.00 0.00 88 1025.3
20260506131559 54 254 0.0 0.0 0.00 0.00 0.00 88 1025.2
20260506131057 54 254 0.0 3.0 0.00 0.00 0.00 88 1025.1
20260506130557 54 254 0.0 3.0 0.00 0.00 0.00 88 1025.2
20260506130125 54 254 0.0 3.0 0.00 0.00 0.00 88 1025.2
20260506125559 54 255 0.0 0.0 0.00 0.00 0.00 88 1025.2
20260506125055 54 255 0.0 0.0 0.00 0.00 0.00 88 1025.1
20260506124555 54 255 0.0 0.0 0.00 0.00 0.00 88 1025.0
20260506124055 54 255 0.0 0.0 0.00 0.00 0.00 88 1025.0
20260506123558 54 255 0.0 0.0 0.00 0.00 0.00 88 1025.0
20260506123055 54 255 0.0 0.0 0.00 0.00 0.00 88 1025.0
20260506122555 54 255 0.0 0.0 0.00 0.00 0.00 88 1024.9
20260506122054 54 255 0.0 0.0 0.00 0.00 0.00 88 1025.0
20260506121555 54 255 0.0 0.0 0.00 0.00 0.00 88 1024.9
20260506121054 54 255 0.0 0.0 0.00 0.00 0.00 88 1024.9
20260506120556 54 255 0.0 0.0 0.00 0.00 0.00 88 1024.9
20260506120059 54 255 0.0 0.0 0.00 0.00 0.00 88 1024.9
20260506115555 54 255 0.0 0.0 0.00 0.00 0.00 88 1024.9
20260506115054 54 255 0.0 0.0 0.00 0.00 0.00 88 1024.8
20260506114553 54 255 0.0 0.0 0.00 0.00 0.00 88 1024.8
20260506114053 54 255 0.0 0.0 0.00 0.00 0.00 88 1024.8
20260506113553 54 255 0.0 0.0 0.00 0.00 0.00 88 1024.8
20260506113104 54 255 0.0 0.0 0.00 0.00 0.00 88 1024.7
20260506112554 54 255 0.0 0.0 0.00 0.00 0.00 88 1024.7
20260506112054 54 255 0.0 0.0 0.00 0.00 0.00 88 1024.7
20260506111554 54 255 0.0 0.0 0.00 0.00 0.00 88 1024.7
20260506111052 54 255 0.0 0.0 0.00 0.00 0.00 88 1024.6
20260506110551 54 255 0.0 0.0 0.00 0.00 0.00 88 1024.6
20260506110100 54 255 0.0 0.0 0.00 0.00 0.00 88 1024.6
20260506105550 54 255 0.0 0.0 0.00 0.00 0.00 88 1024.6
20260506105050 54 255 0.0 0.0 0.00 0.00 0.00 88 1024.5
20260506104613 54 255 0.0 0.0 0.00 0.00 0.00 88 1024.5
20260506104049 54 255 0.0 0.0 0.00 0.00 0.00 88 1024.5
20260506103548 54 255 0.0 0.0 0.00 0.00 0.00 89 1024.4
20260506103049 54 255 0.0 0.0 0.00 0.00 0.00 88 1024.4
20260506102548 54 255 0.0 0.0 0.00 0.00 0.00 88 1024.3
20260506102046 54 255 0.0 0.0 0.00 0.00 0.00 88 1024.2
20260506101554 54 255 0.0 0.0 0.00 0.00 0.00 88 1024.1
20260506101046 54 255 0.0 0.0 0.00 0.00 0.00 88 1024.1
20260506100550 54 255 0.0 0.0 0.00 0.00 0.00 88 1024.1
20260506100047 54 255 0.0 0.0 0.00 0.00 0.00 88 1024.1
20260506095550 54 255 0.0 0.0 0.00 0.00 0.00 88 1024.1
20260506095047 54 255 0.0 0.0 0.00 0.00 0.00 88 1024.1
20260506094555 54 255 0.0 0.0 0.00 0.00 0.00 88 1024.0
20260506094047 54 255 0.0 0.0 0.00 0.00 0.00 88 1024.0
20260506093548 54 255 0.0 0.0 0.00 0.00 0.00 88 1024.0
20260506093052 54 255 0.0 0.0 0.00 0.00 0.00 88 1024.0
20260506092545 54 255 0.0 0.0 0.00 0.00 0.00 88 1024.1
20260506092045 54 255 0.0 0.0 0.00 0.00 0.00 88 1024.1
20260506091545 54 255 0.0 0.0 0.00 0.00 0.00 88 1024.1
20260506091047 54 255 0.0 0.0 0.00 0.00 0.00 87 1024.1
20260506090550 54 255 0.0 0.0 0.00 0.00 0.00 87 1024.1
20260506090049 54 255 0.0 0.0 0.00 0.00 0.00 87 1024.1
20260506085545 54 255 0.0 0.0 0.00 0.00 0.00 87 1024.1
20260506085046 54 255 0.0 0.0 0.00 0.00 0.00 87 1024.1
20260506084549 54 255 0.0 0.0 0.00 0.00 0.00 87 1024.1
20260506084046 54 255 0.0 0.0 0.00 0.00 0.00 87 1024.1
20260506083545 54 255 0.0 0.0 0.00 0.00 0.00 87 1024.1
20260506083046 54 255 0.0 0.0 0.00 0.00 0.00 87 1024.1
20260506082547 54 255 0.0 0.0 0.00 0.00 0.00 87 1024.1
20260506082051 54 255 0.0 0.0 0.00 0.00 0.00 87 1024.1
20260506081547 54 255 0.0 0.0 0.00 0.00 0.00 86 1024.1
20260506081045 54 255 0.0 5.0 0.00 0.00 0.00 86 1024.1
20260506080544 54 255 0.0 5.0 0.00 0.00 0.00 86 1024.1
20260506073045 54 290 0.0 3.0 0.00 0.00 0.00 85 1023.7
20260506072540 54 290 0.0 2.0 0.00 0.00 0.00 85 1023.7
20260506072041 54 290 0.0 3.0 0.00 0.00 0.00 85 1023.6
20260506071550 54 290 0.0 5.0 0.00 0.00 0.00 84 1023.6
20260506071038 54 271 0.0 4.0 0.00 0.00 0.00 84 1023.5
20260506070538 54 270 0.0 4.0 0.00 0.00 0.00 84 1023.5
20260506062034 54 276 1.0 5.0 0.00 0.00 0.00 84 1023.0
20260506061535 54 262 0.0 5.0 0.00 0.00 0.00 84 1023.0
20260506061033 54 232 0.0 7.0 0.00 0.00 0.00 84 1022.9
20260506060540 54 222 0.0 7.0 0.00 0.00 0.00 84 1022.9
20260506051037 55 212 3.0 11.0 0.00 0.07 0.00 82 1022.5
20260506050532 55 236 3.0 11.0 0.00 0.07 0.00 82 1022.5
20260506045026 55 199 3.0 11.0 0.00 0.07 0.00 82 1022.2
20260506044527 55 200 0.0 11.0 0.00 0.07 0.00 82 1022.1
20260506044028 55 212 0.0 7.0 0.00 0.07 0.00 81 1022.1
20260506043525 56 296 1.0 11.0 0.00 0.07 0.00 81 1022.0
20260506043026 56 253 2.0 11.0 0.00 0.07 0.00 81 1022.0
20260506042524 56 301 2.0 14.0 0.00 0.07 0.00 81 1021.9
20260506042026 56 209 2.0 9.0 0.00 0.07 0.00 81 1021.8
20260506041530 56 176 0.0 13.0 0.00 0.07 0.00 80 1021.8
20260506041022 56 278 3.0 13.0 0.00 0.07 0.00 80 1021.5
20260506040525 57 234 4.0 13.0 0.00 0.07 0.00 80 1021.5
20260506040026 57 195 3.0 12.0 0.00 0.07 0.00 80 1021.3
20260506035523 57 257 4.0 12.0 0.00 0.07 0.00 80 1021.3
20260506035022 57 205 1.0 8.0 0.00 0.07 0.00 80 1021.1
20260506034524 57 303 3.0 9.0 0.00 0.07 0.00 79 1021.1
20260506034024 57 328 1.0 10.0 0.00 0.07 0.00 80 1020.9
20260506033521 58 174 2.0 10.0 0.00 0.07 0.00 80 1020.8
20260506033027 58 251 1.0 11.0 0.00 0.07 0.00 80 1020.7
20260506032523 58 217 1.0 11.0 0.00 0.07 0.00 79 1020.6
20260506032023 58 213 2.0 13.0 0.00 0.07 0.00 79 1020.5
20260506031525 58 201 3.0 13.0 0.00 0.07 0.00 79 1020.5
20260506031022 58 277 2.0 13.0 0.00 0.07 0.00 78 1020.4
20260506030524 58 254 2.0 13.0 0.00 0.07 0.00 78 1020.4
20260506030025 58 220 6.0 13.0 0.00 0.07 0.00 78 1020.3
20260506025521 58 211 5.0 13.0 0.00 0.07 0.00 77 1020.2
20260506025023 58 195 4.0 16.0 0.00 0.07 0.00 78 1020.1
20260506024521 59 201 3.0 16.0 0.00 0.07 0.00 78 1020.0
20260506024022 59 211 5.0 13.0 0.00 0.07 0.00 77 1019.9
20260506023520 59 212 6.0 15.0 0.00 0.07 0.00 77 1019.8
20260506023020 59 220 6.0 14.0 0.00 0.07 0.00 77 1019.8
20260506022520 59 178 6.0 14.0 0.00 0.07 0.00 76 1019.8
20260506022023 60 155 5.0 13.0 0.00 0.07 0.00 76 1019.7
20260506021520 60 195 3.0 15.0 0.00 0.07 0.00 75 1019.7
20260506021020 60 215 5.0 13.0 0.00 0.07 0.00 74 1019.7
20260506020520 60 217 6.0 13.0 0.00 0.07 0.00 74 1019.7
20260506020023 61 214 5.0 13.0 0.00 0.07 0.00 73 1019.6
20260506015521 61 284 4.0 13.0 0.00 0.07 0.00 74 1019.6
20260506015022 61 181 4.0 10.0 0.00 0.07 0.00 73 1019.7
20260506014522 62 249 3.0 14.0 0.00 0.07 0.00 73 1019.5
20260506014019 62 195 4.0 14.0 0.00 0.07 0.00 73 1019.5
20260506013520 62 176 4.0 16.0 0.00 0.07 0.00 72 1019.5
20260506013026 62 190 6.0 16.0 0.00 0.07 0.00 71 1019.4
20260506012520 62 182 2.0 12.0 0.00 0.07 0.00 71 1019.4
20260506012019 62 213 6.0 15.0 0.00 0.07 0.00 70 1019.3
20260506011520 62 209 4.0 15.0 0.00 0.07 0.00 69 1019.3
20260506011019 63 186 5.0 12.0 0.00 0.07 0.00 68 1019.3
20260506010519 63 201 4.0 12.0 0.00 0.07 0.00 68 1019.3
20260506010025 63 191 2.0 14.0 0.00 0.07 0.00 68 1019.2
20260506005520 63 224 6.0 14.0 0.00 0.07 0.00 68 1019.2
20260506005019 64 198 5.0 13.0 0.00 0.07 0.00 68 1019.3
20260506004528 64 195 5.0 13.0 0.00 0.07 0.00 67 1019.3